EW9525 Weather Reports


time (UTC)temp
F
wind
direction
speed
knots
gust
knots
rain 1hr
in
rain 24hr
in
rain mn
in
humidity
%
barometer
mb
20260906094518 67 17 11.3 16.5 0.23 0.37 0.37 92 1011.1
20260906093017 67 359 9.6 16.5 0.36 0.36 0.36 92 1010.4
20260906091529 67 23 12.2 18.2 0.35 0.35 0.35 92 1010.3
20260906090013 67 357 13.9 19.1 0.26 0.26 0.26 91 1010.5
20260906084510 67 335 12.2 16.5 0.13 0.13 0.13 89 1010.8
20260906083012 69 354 11.3 17.4 0.00 0.00 0.00 84 1010.3
20260906081502 72 330 9.6 19.1 0.00 0.00 0.00 75 1010.2
20260906080056 75 334 12.2 24.3 0.00 0.00 0.00 69 1009.9
20260906074609 76 290 8.7 13.9 0.00 0.00 0.00 68 1009.1
20260906073050 76 82 0.9 2.6 0.00 0.00 0.00 68 1008.1
20260906071549 76 110 0.0 2.6 0.00 0.00 0.00 67 1008.5
20260906070048 77 191 3.5 7.0 0.00 0.00 0.00 65 1008.3
20260906064547 77 145 4.3 7.0 0.00 0.00 0.00 64 1008.1
20260906063045 78 158 3.5 6.1 0.00 0.00 0.00 63 1008.1
20260906061544 78 153 5.2 8.7 0.00 0.00 0.00 62 1008.3
20260906060042 78 164 4.3 8.7 0.00 0.00 0.00 63 1008.2
20260906054539 78 167 7.0 10.4 0.00 0.00 0.00 64 1008.0
20260906053037 77 187 6.1 9.6 0.00 0.00 0.00 65 1008.0
20260906051541 77 200 5.2 7.8 0.00 0.00 0.00 65 1007.9
20260906050044 77 184 2.6 5.2 0.00 0.00 0.00 66 1008.0
20260906044537 78 189 2.6 6.1 0.00 0.00 0.00 64 1008.0
20260906043032 78 186 3.5 5.2 0.00 0.00 0.00 64 1008.0
20260906041535 78 161 1.7 4.3 0.00 0.00 0.00 62 1008.0
20260906040031 79 158 1.7 5.2 0.00 0.00 0.00 61 1008.1
20260906034530 79 137 2.6 6.1 0.00 0.00 0.00 61 1008.0
20260906033040 80 137 2.6 6.1 0.00 0.00 0.00 59 1007.8
20260906031531 80 160 2.6 4.3 0.00 0.00 0.00 59 1007.5
20260906030030 81 119 1.7 5.2 0.00 0.00 0.00 57 1007.4
20260906024528 81 205 2.6 5.2 0.00 0.00 0.00 57 1007.5
20260906023028 82 152 1.7 2.6 0.00 0.00 0.00 56 1007.6
20260906021528 83 141 3.5 7.0 0.00 0.00 0.00 53 1007.2
20260906020028 84 140 4.3 7.8 0.00 0.00 0.00 52 1007.1
20260906014528 85 173 5.2 11.3 0.00 0.00 0.00 49 1007.0
20260906013026 85 134 13.0 17.4 0.00 0.00 0.00 48 1007.0
20260906011534 85 101 2.6 4.3 0.00 0.00 0.00 47 1006.6
20260906010025 87 100 0.9 2.6 0.00 0.00 0.00 46 1006.5
20260906004524 88 98 1.7 3.5 0.00 0.00 0.00 43 1006.6
20260906003024 89 104 3.5 6.1 0.00 0.00 0.00 42 1006.6
20260906001524 90 105 3.5 7.8 0.00 0.00 0.00 40 1006.4
20260906000023 91 108 6.1 9.6 0.00 0.00 0.00 39 1006.4
20260905234523 92 119 7.0 10.4 0.00 0.00 0.00 36 1006.2
20260905233021 93 102 6.1 13.0 0.00 0.00 0.00 35 1006.0
20260905231523 95 99 9.6 14.8 0.00 0.00 0.00 34 1005.9
20260905230021 96 102 10.4 15.6 0.00 0.00 0.00 32 1005.9
20260905224531 96 131 11.3 16.5 0.00 0.00 0.00 32 1005.8
20260905223019 96 111 11.3 15.6 0.00 0.00 0.00 33 1006.0
20260905221518 96 112 10.4 14.8 0.00 0.00 0.00 32 1006.1
20260905220018 96 115 11.3 17.4 0.00 0.00 0.00 31 1006.2
20260905214516 96 136 12.2 20.0 0.00 0.00 0.00 33 1006.3
20260905213015 96 124 12.2 20.0 0.00 0.00 0.00 34 1006.4
20260905211514 96 124 13.9 20.0 0.00 0.00 0.00 32 1006.6
20260905210013 96 97 13.0 19.1 0.00 0.00 0.00 32 1006.8
20260905204517 97 96 11.3 18.2 0.00 0.00 0.00 32 1006.9
20260905203011 96 141 13.0 20.0 0.00 0.00 0.00 32 1007.0
20260905201510 96 113 13.0 18.2 0.00 0.00 0.00 33 1007.1
20260905200008 95 108 11.3 18.2 0.00 0.00 0.00 34 1007.3
20260905194504 94 115 11.3 15.6 0.00 0.00 0.00 37 1007.4
20260905193005 94 116 11.3 19.1 0.00 0.00 0.00 37 1007.5
20260905191502 94 105 11.3 16.5 0.00 0.00 0.00 37 1007.6
20260905184602 93 122 10.4 16.5 0.00 0.00 0.00 40 1007.9
20260905183100 93 91 11.3 16.5 0.00 0.00 0.00 40 1008.1
20260905181609 92 97 9.6 15.6 0.00 0.00 0.00 42 1008.4
20260905180054 90 105 7.8 13.0 0.00 0.00 0.00 44 1008.6
20260905174555 90 108 8.7 16.5 0.00 0.00 0.00 44 1008.6
20260905173051 90 120 9.6 15.6 0.00 0.00 0.00 43 1008.8
20260905171550 89 125 9.6 15.6 0.00 0.00 0.00 44 1008.7
20260905170047 88 113 7.0 14.8 0.00 0.00 0.00 45 1008.6
20260905164544 88 103 7.8 10.4 0.00 0.00 0.00 46 1008.6
20260905163041 86 122 5.2 8.7 0.00 0.00 0.00 49 1008.7
20260905161537 85 79 3.5 9.6 0.00 0.00 0.00 51 1008.7
20260905154531 83 77 5.2 7.8 0.00 0.00 0.00 55 1008.6
20260905153030 82 78 4.3 7.8 0.00 0.00 0.00 56 1008.3
20260905151534 82 74 3.5 6.1 0.00 0.00 0.00 58 1008.3
20260905150030 81 39 2.6 4.3 0.00 0.00 0.00 57 1008.3
20260905144527 83 77 1.7 3.5 0.00 0.00 0.00 55 1008.1
20260905143026 82 187 0.0 0.0 0.00 0.00 0.00 55 1008.1
20260905141524 80 202 0.0 0.0 0.00 0.00 0.00 58 1008.1
20260905140023 78 213 0.0 0.0 0.00 0.00 0.00 63 1008.1
20260905134521 75 223 0.0 0.0 0.00 0.00 0.00 70 1008.1
20260905133022 73 254 0.0 0.0 0.00 0.00 0.00 74 1007.9
20260905131520 71 256 0.0 0.0 0.00 0.00 0.00 80 1008.0
20260905130020 68 257 0.0 0.0 0.00 0.00 0.00 83 1007.9
20260905124518 67 236 0.0 0.0 0.00 0.00 0.00 84 1007.7
20260905123017 67 236 0.0 0.0 0.00 0.00 0.00 85 1007.4
20260905121515 67 207 0.0 0.0 0.00 0.00 0.00 81 1007.5
20260905120013 69 252 0.0 0.0 0.00 0.00 0.00 78 1007.3
20260905114513 70 257 0.0 0.0 0.00 0.00 0.00 77 1007.1
20260905113012 71 257 0.0 0.0 0.00 0.00 0.00 76 1007.1
20260905111512 71 265 0.0 0.0 0.00 0.00 0.00 77 1007.1
20260905110012 69 349 0.0 0.0 0.00 0.00 0.00 82 1007.2
20260905104507 71 261 0.0 0.0 0.00 0.00 0.00 77 1007.3
20260905103017 71 259 0.0 0.0 0.00 0.00 0.00 79 1007.2
20260905101506 71 70 0.0 0.0 0.00 0.00 0.00 80 1007.5
20260905100002 72 255 0.0 0.0 0.00 0.00 0.00 77 1007.7